Location: Drummondville
(45.8830°N, 72.4830°W)
Time: 20:58:38
(UTC-05:00)

Tiangong 2 - Pass Details

Date: 13 November 2017
Orbit: 386 x 392 km, 42.8° (Epoch: 22 November)

Event Time Altitude Azimuth Distance (km) Brightness Sun altitude
Rises 17:17:49 0° 269° (W) 2,275 6.7 -10.2°
Reaches altitude 10° 17:20:33 10° 244° (WSW) 1,415 5.4 -10.6°
Maximum altitude 17:22:23 14° 208° (SSW) 1,177 4.1 -10.9°
Drops below altitude 10° 17:24:13 10° 173° (S) 1,409 4.0 -11.2°
Sets 17:26:56 0° 148° (SSE) 2,258 4.8 -11.7°
